Time,TemperatureF,DewpointF,PressureIn,WindDirection,WindDirectionDegrees,WindSpeedMPH,WindSpeedGustMPH,Humidity,HourlyPrecipIn,Conditions,Clouds,dailyrainin,SolarRadiationWatts/m^2,SoftwareType,DateUTC
2013-02-08 00:07:00,25.2,21.0,30.28,North,355,0.0,0.0,85,0.00,,,0.00,0,weatherlink.com 1.10,2013-02-08 06:07:00,
2013-02-08 00:22:00,25.2,21.0,30.29,North,355,0.0,0.0,84,0.00,,,0.00,0,weatherlink.com 1.10,2013-02-08 06:22:00,
2013-02-08 00:52:00,25.1,21.0,30.30,North,355,0.0,2.0,84,0.00,,,0.00,0,weatherlink.com 1.10,2013-02-08 06:52:00,
2013-02-08 01:07:00,25.1,21.0,30.30,North,355,1.0,4.0,84,0.00,,,0.00,0,weatherlink.com 1.10,2013-02-08 07:07:00,
2013-02-08 01:22:00,25.0,21.0,30.30,North,355,0.0,0.0,84,0.00,,,0.00,0,weatherlink.com 1.10,2013-02-08 07:22:00,
2013-02-08 01:38:00,25.0,21.0,30.31,North,355,0.0,5.0,84,0.00,,,0.00,0,weatherlink.com 1.10,2013-02-08 07:38:00,
2013-02-08 01:52:00,24.9,21.0,30.31,North,355,0.0,3.0,84,0.00,,,0.00,0,weatherlink.com 1.10,2013-02-08 07:52:00,
2013-02-08 02:07:00,24.8,21.0,30.31,North,355,1.0,0.0,84,0.00,,,0.00,0,weatherlink.com 1.10,2013-02-08 08:07:00,
2013-02-08 02:22:00,24.8,21.0,30.31,North,355,0.0,0.0,84,0.00,,,0.00,0,weatherlink.com 1.10,2013-02-08 08:22:00,
2013-02-08 02:37:00,24.7,21.0,30.31,North,355,0.0,0.0,84,0.00,,,0.00,0,weatherlink.com 1.10,2013-02-08 08:37:00,
2013-02-08 02:52:00,24.5,20.0,30.31,North,355,0.0,0.0,84,0.00,,,0.00,0,weatherlink.com 1.10,2013-02-08 08:52:00,
2013-02-08 03:07:00,24.3,20.0,30.31,North,355,0.0,0.0,84,0.00,,,0.00,0,weatherlink.com 1.10,2013-02-08 09:07:00,
2013-02-08 03:23:00,24.3,20.0,30.31,North,355,0.0,0.0,84,0.00,,,0.00,0,weatherlink.com 1.10,2013-02-08 09:23:00,
2013-02-08 03:37:00,24.2,20.0,30.31,North,355,0.0,0.0,85,0.00,,,0.00,0,weatherlink.com 1.10,2013-02-08 09:37:00,
2013-02-08 03:53:00,24.2,20.0,30.31,North,355,0.0,0.0,85,0.00,,,0.00,0,weatherlink.com 1.10,2013-02-08 09:53:00,
2013-02-08 04:07:00,24.1,20.0,30.31,North,355,0.0,0.0,85,0.00,,,0.00,0,weatherlink.com 1.10,2013-02-08 10:07:00,
2013-02-08 04:23:00,24.0,20.0,30.32,North,355,0.0,0.0,85,0.00,,,0.00,0,weatherlink.com 1.10,2013-02-08 10:23:00,
2013-02-08 04:37:00,23.9,20.0,30.33,North,355,0.0,0.0,85,0.00,,,0.00,0,weatherlink.com 1.10,2013-02-08 10:37:00,
2013-02-08 04:52:00,23.9,20.0,30.33,North,355,0.0,0.0,85,0.00,,,0.00,0,weatherlink.com 1.10,2013-02-08 10:52:00,
2013-02-08 05:07:00,23.8,20.0,30.34,North,355,0.0,0.0,85,0.00,,,0.00,0,weatherlink.com 1.10,2013-02-08 11:07:00,
2013-02-08 05:22:00,23.6,20.0,30.34,North,355,0.0,0.0,85,0.00,,,0.00,0,weatherlink.com 1.10,2013-02-08 11:22:00,
2013-02-08 05:38:00,23.5,20.0,30.34,North,355,0.0,0.0,85,0.00,,,0.00,0,weatherlink.com 1.10,2013-02-08 11:38:00,
2013-02-08 05:53:00,23.3,19.0,30.35,North,355,2.0,5.0,84,0.00,,,0.00,0,weatherlink.com 1.10,2013-02-08 11:53:00,
2013-02-08 06:08:00,23.1,18.0,30.35,North,355,0.0,4.0,81,0.00,,,0.00,0,weatherlink.com 1.10,2013-02-08 12:08:00,
2013-02-08 06:23:00,22.8,18.0,30.35,North,355,2.0,4.0,80,0.00,,,0.00,0,weatherlink.com 1.10,2013-02-08 12:23:00,
2013-02-08 06:38:00,22.4,17.0,30.35,North,355,0.0,3.0,80,0.00,,,0.00,0,weatherlink.com 1.10,2013-02-08 12:38:00,
2013-02-08 06:53:00,22.1,17.0,30.35,North,355,4.0,4.0,80,0.00,,,0.00,0,weatherlink.com 1.10,2013-02-08 12:53:00,
2013-02-08 07:08:00,21.3,16.0,30.36,North,355,0.0,6.0,80,0.00,,,0.00,0,weatherlink.com 1.10,2013-02-08 13:08:00,
2013-02-08 07:23:00,20.9,16.0,30.36,North,355,0.0,3.0,80,0.00,,,0.00,0,weatherlink.com 1.10,2013-02-08 13:23:00,
2013-02-08 07:38:00,20.4,15.0,30.36,North,355,0.0,0.0,81,0.00,,,0.00,11,weatherlink.com 1.10,2013-02-08 13:38:00,
2013-02-08 07:53:00,20.0,15.0,30.36,North,355,0.0,0.0,81,0.00,,,0.00,25,weatherlink.com 1.10,2013-02-08 13:53:00,
2013-02-08 08:23:00,20.3,16.0,30.37,North,355,0.0,0.0,82,0.00,,,0.00,63,weatherlink.com 1.10,2013-02-08 14:23:00,
2013-02-08 08:38:00,20.6,16.0,30.38,North,355,0.0,0.0,82,0.00,,,0.00,77,weatherlink.com 1.10,2013-02-08 14:38:00,
2013-02-08 08:53:00,21.1,16.0,30.38,North,355,0.0,0.0,82,0.00,,,0.00,100,weatherlink.com 1.10,2013-02-08 14:53:00,
2013-02-08 09:08:00,22.0,17.0,30.38,North,355,0.0,2.0,82,0.00,,,0.00,139,weatherlink.com 1.10,2013-02-08 15:08:00,
2013-02-08 09:23:00,23.3,18.0,30.37,North,355,0.0,0.0,80,0.00,,,0.00,162,weatherlink.com 1.10,2013-02-08 15:23:00,
2013-02-08 09:38:00,24.6,18.0,30.38,North,355,0.0,0.0,76,0.00,,,0.00,176,weatherlink.com 1.10,2013-02-08 15:38:00,
2013-02-08 09:54:00,24.9,18.0,30.38,North,355,0.0,1.0,75,0.00,,,0.00,181,weatherlink.com 1.10,2013-02-08 15:54:00,
2013-02-08 10:08:00,25.2,18.0,30.39,North,355,0.0,0.0,75,0.00,,,0.00,197,weatherlink.com 1.10,2013-02-08 16:08:00,
2013-02-08 10:24:00,25.3,18.0,30.39,North,355,0.0,3.0,74,0.00,,,0.00,213,weatherlink.com 1.10,2013-02-08 16:24:00,
2013-02-08 10:38:00,25.5,19.0,30.38,North,355,0.0,0.0,75,0.00,,,0.00,251,weatherlink.com 1.10,2013-02-08 16:38:00,
2013-02-08 10:53:00,25.7,19.0,30.38,North,360,0.0,3.0,75,0.00,,,0.00,272,weatherlink.com 1.10,2013-02-08 16:53:00,
2013-02-08 11:08:00,25.6,19.0,30.39,North,355,0.0,3.0,75,0.00,,,0.00,278,weatherlink.com 1.10,2013-02-08 17:08:00,
2013-02-08 11:24:00,26.0,19.0,30.39,ESE,119,0.0,2.0,75,0.00,,,0.00,264,weatherlink.com 1.10,2013-02-08 17:24:00,
2013-02-08 11:39:00,25.9,19.0,30.39,ESE,111,0.0,0.0,76,0.00,,,0.00,265,weatherlink.com 1.10,2013-02-08 17:39:00,
2013-02-08 11:54:00,25.8,20.0,30.38,East,95,0.0,2.0,77,0.00,,,0.00,271,weatherlink.com 1.10,2013-02-08 17:54:00,
2013-02-08 12:09:00,25.8,20.0,30.38,East,98,0.0,5.0,77,0.00,,,0.00,285,weatherlink.com 1.10,2013-02-08 18:09:00,
2013-02-08 12:24:00,25.7,19.0,30.38,South,170,3.0,7.0,77,0.00,,,0.00,308,weatherlink.com 1.10,2013-02-08 18:24:00,
2013-02-08 12:39:00,26.0,20.0,30.37,SE,134,0.0,2.0,78,0.00,,,0.00,308,weatherlink.com 1.10,2013-02-08 18:39:00,
2013-02-08 12:54:00,26.5,21.0,30.37,South,175,0.0,5.0,78,0.00,,,0.00,311,weatherlink.com 1.10,2013-02-08 18:54:00,
2013-02-08 13:09:00,26.0,20.0,30.36,South,186,0.0,7.0,77,0.00,,,0.00,211,weatherlink.com 1.10,2013-02-08 19:09:00,
2013-02-08 13:24:00,26.7,20.0,30.35,SSE,167,0.0,0.0,76,0.00,,,0.00,299,weatherlink.com 1.10,2013-02-08 19:24:00,
2013-02-08 13:39:00,26.8,21.0,30.34,SSE,157,0.0,0.0,77,0.00,,,0.00,276,weatherlink.com 1.10,2013-02-08 19:39:00,
2013-02-08 13:54:00,26.9,21.0,30.34,ESE,103,2.0,5.0,77,0.00,,,0.00,276,weatherlink.com 1.10,2013-02-08 19:54:00,
2013-02-08 14:09:00,27.0,20.0,30.34,ESE,113,0.0,3.0,76,0.00,,,0.00,237,weatherlink.com 1.10,2013-02-08 20:09:00,
2013-02-08 14:24:00,26.5,20.0,30.33,South,171,0.0,11.0,77,0.00,,,0.00,218,weatherlink.com 1.10,2013-02-08 20:24:00,
2013-02-08 14:39:00,26.7,20.0,30.33,SE,126,0.0,3.0,77,0.00,,,0.00,197,weatherlink.com 1.10,2013-02-08 20:39:00,
2013-02-08 14:54:00,26.5,20.0,30.33,SSE,161,0.0,1.0,77,0.00,,,0.00,109,weatherlink.com 1.10,2013-02-08 20:54:00,
2013-02-08 15:09:00,26.5,20.0,30.33,South,172,0.0,3.0,77,0.00,,,0.00,95,weatherlink.com 1.10,2013-02-08 21:09:00,
2013-02-08 15:24:00,26.5,21.0,30.33,South,178,0.0,4.0,78,0.00,,,0.00,105,weatherlink.com 1.10,2013-02-08 21:24:00,
2013-02-08 15:39:00,26.3,20.0,30.32,SSE,168,0.0,7.0,78,0.00,,,0.00,107,weatherlink.com 1.10,2013-02-08 21:39:00,
2013-02-08 15:54:00,26.3,20.0,30.32,SSW,196,0.0,6.0,78,0.00,,,0.00,90,weatherlink.com 1.10,2013-02-08 21:54:00,
2013-02-08 16:09:00,26.4,20.0,30.32,South,175,0.0,11.0,78,0.00,,,0.00,76,weatherlink.com 1.10,2013-02-08 22:09:00,
2013-02-08 16:24:00,26.3,20.0,30.31,South,173,0.0,8.0,78,0.00,,,0.00,105,weatherlink.com 1.10,2013-02-08 22:24:00,
2013-02-08 16:39:00,26.3,20.0,30.30,SSE,156,0.0,3.0,78,0.00,,,0.00,58,weatherlink.com 1.10,2013-02-08 22:39:00,
2013-02-08 16:54:00,26.2,20.0,30.29,SSE,167,0.0,6.0,78,0.00,,,0.00,44,weatherlink.com 1.10,2013-02-08 22:54:00,
2013-02-08 17:09:00,26.0,20.0,30.29,SSE,147,0.0,5.0,78,0.00,,,0.00,18,weatherlink.com 1.10,2013-02-08 23:09:00,
2013-02-08 17:24:00,25.7,20.0,30.29,SE,143,0.0,3.0,79,0.00,,,0.00,5,weatherlink.com 1.10,2013-02-08 23:24:00,
2013-02-08 17:39:00,25.4,20.0,30.28,East,86,0.0,4.0,80,0.00,,,0.00,0,weatherlink.com 1.10,2013-02-08 23:39:00,
2013-02-08 17:54:00,25.2,20.0,30.27,SE,137,0.0,4.0,80,0.00,,,0.00,0,weatherlink.com 1.10,2013-02-08 23:54:00,
2013-02-08 18:09:00,25.1,20.0,30.28,SSE,163,0.0,5.0,81,0.00,,,0.00,0,weatherlink.com 1.10,2013-02-09 00:09:00,
2013-02-08 18:24:00,25.0,20.0,30.28,SSW,192,0.0,0.0,82,0.00,,,0.00,0,weatherlink.com 1.10,2013-02-09 00:24:00,
2013-02-08 18:39:00,25.0,20.0,30.27,SSE,164,0.0,3.0,82,0.00,,,0.00,0,weatherlink.com 1.10,2013-02-09 00:39:00,
2013-02-08 18:54:00,25.0,20.0,30.27,SE,140,0.0,6.0,82,0.00,,,0.00,0,weatherlink.com 1.10,2013-02-09 00:54:00,
2013-02-08 19:09:00,24.9,20.0,30.27,SE,145,0.0,5.0,83,0.00,,,0.00,0,weatherlink.com 1.10,2013-02-09 01:09:00,
2013-02-08 19:24:00,25.0,21.0,30.27,SSE,165,0.0,5.0,83,0.00,,,0.00,0,weatherlink.com 1.10,2013-02-09 01:24:00,
2013-02-08 19:39:00,25.1,21.0,30.27,ESE,117,0.0,4.0,83,0.00,,,0.00,0,weatherlink.com 1.10,2013-02-09 01:39:00,
2013-02-08 19:54:00,25.1,21.0,30.27,ESE,121,0.0,0.0,83,0.00,,,0.00,0,weatherlink.com 1.10,2013-02-09 01:54:00,
2013-02-08 20:09:00,25.2,21.0,30.26,ESE,111,0.0,4.0,84,0.00,,,0.00,0,weatherlink.com 1.10,2013-02-09 02:09:00,
2013-02-08 20:24:00,25.3,21.0,30.26,South,180,2.0,7.0,84,0.00,,,0.00,0,weatherlink.com 1.10,2013-02-09 02:24:00,
2013-02-08 20:39:00,25.6,21.0,30.25,SSE,158,0.0,15.0,84,0.00,,,0.00,0,weatherlink.com 1.10,2013-02-09 02:39:00,
2013-02-08 20:54:00,25.7,22.0,30.24,ESE,115,0.0,6.0,84,0.00,,,0.00,0,weatherlink.com 1.10,2013-02-09 02:54:00,
2013-02-08 21:10:00,25.7,22.0,30.24,SSE,164,0.0,6.0,84,0.00,,,0.00,0,weatherlink.com 1.10,2013-02-09 03:10:00,
2013-02-08 21:25:00,25.7,22.0,30.24,SE,144,0.0,8.0,84,0.00,,,0.00,0,weatherlink.com 1.10,2013-02-09 03:25:00,
2013-02-08 21:39:00,25.7,22.0,30.25,South,171,2.0,13.0,84,0.00,,,0.00,0,weatherlink.com 1.10,2013-02-09 03:39:00,
2013-02-08 21:54:00,25.8,22.0,30.24,SSE,168,0.0,13.0,85,0.00,,,0.00,0,weatherlink.com 1.10,2013-02-09 03:54:00,
2013-02-08 22:09:00,25.9,22.0,30.23,South,173,0.0,10.0,85,0.00,,,0.00,0,weatherlink.com 1.10,2013-02-09 04:09:00,
2013-02-08 22:24:00,26.0,22.0,30.24,SSE,155,0.0,9.0,85,0.00,,,0.00,0,weatherlink.com 1.10,2013-02-09 04:24:00,
2013-02-08 22:39:00,26.1,22.0,30.24,SSE,162,0.0,4.0,85,0.00,,,0.00,0,weatherlink.com 1.10,2013-02-09 04:39:00,
2013-02-08 22:54:00,26.2,22.0,30.23,SSE,164,0.0,12.0,85,0.00,,,0.00,0,weatherlink.com 1.10,2013-02-09 04:54:00,
2013-02-08 23:09:00,26.3,22.0,30.23,South,178,2.0,10.0,85,0.00,,,0.00,0,weatherlink.com 1.10,2013-02-09 05:09:00,
2013-02-08 23:25:00,26.3,22.0,30.22,SSE,163,0.0,6.0,85,0.00,,,0.00,0,weatherlink.com 1.10,2013-02-09 05:25:00,
2013-02-08 23:40:00,26.2,22.0,30.23,South,188,0.0,10.0,85,0.00,,,0.00,0,weatherlink.com 1.10,2013-02-09 05:40:00,
2013-02-08 23:54:00,26.2,23.0,30.23,ESE,102,3.0,14.0,86,0.00,,,0.00,0,weatherlink.com 1.10,2013-02-09 05:54:00,